User: anonymous   Login
Location: Unspecified
(0.0000°N, 0.0000°E)
Time: 02:40:59
(UTC+02:00)
Language:

Cosmos 1943 Rocket - Orbit

View from above orbital plane
View from above orbital plane
View from above satellite
View from above satellite

Ground track
Ground track

The orbit data is extracted from the following two-line orbital elements,

1 19120U 88039B   16207.53371627 -.00000186  00000-0 -65645-4 0  9998
2 19120  71.0158 295.1133 0023201 324.2529  35.7042 14.19153014460040
Epoch (UTC): 25 July 2016 12:48:33
Eccentricity: 0.0023201
inclination: 71.0158°
perigee height: 811 km
apogee height: 845 km
right ascension of ascending node: 295.1133°
argument of perigee: 324.2529°
revolutions per day: 14.19153014
mean anomaly at epoch: 35.7042°
orbit number at epoch: 46004

The dashed part of the orbit path shows where the satellite is in the earth's shadow,  

DLR